Regional Weather Roundup
Issued by NWS

Home | Current Version | Previous Version | Graphics & Text | Print | Product List | Glossary On
Versions: 1 2 3 4 5 6 7 8 9 10 11 12 13 14 15 16 17 18 19 20 21 22 23 24 25 26 27
000
ASUS45 KSLC 190610
RWRUT

UTAH REGIONAL WEATHER ROUNDUP
NATIONAL WEATHER SERVICE SALT LAKE CITY UT
1200 AM MDT SAT AUG 19 2017

UTZ001>011-023>025-190700-

NORTHERN UTAH

CITY           SKY/WX    TMP DP  RH WIND       PRES   REMARKS
BRIGHAM CITY   CLEAR     68  38  33 CALM      30.08R
HILL AFB       CLEAR     70  31  23 E14       30.10S
LOGAN          CLEAR     59  44  57 CALM      30.10R
OGDEN          CLEAR     68  33  27 S10       30.06F
SALT LAKE CITY CLEAR     75  34  22 SE12      30.05F
TOOELE VALLEY  CLEAR     61  36  39 S9        30.07S
WENDOVER       CLEAR     75  34  22 NW5       30.05F
HEBER CITY     CLEAR     54  41  62 E5        30.18S
WEST JORDAN    CLEAR     69  46  43 CALM      30.10S

$$

UTZ011>015-024>027-190700-

CENTRAL/NORTHEAST UTAH

CITY           SKY/WX    TMP DP  RH WIND       PRES   REMARKS
PROVO AIRPORT  CLEAR     65  49  56 SE8       30.10S
MOAB/CANYONLAN CLEAR     73  30  20 CALM      30.04S
DELTA          CLEAR     70  34  26 S6        30.09R
PRICE          CLEAR     71  36  27 W3        30.17F
ROOSEVELT      CLEAR     61  45  55 W7        30.15S
VERNAL         PTCLDY    68  43  40 NW7       30.12S

$$

UTZ013>016-019>022-027-190700-

SOUTHERN UTAH

CITY           SKY/WX    TMP DP  RH WIND       PRES   REMARKS
BRYCE CANYON   CLEAR     54  39  57 W9        30.35F
CEDAR CITY     PTCLDY    71  40  32 SE8       30.17S
MILFORD        PTCLDY    73  34  23 CALM      30.11S
ST GEORGE      CLEAR     82  43  25 CALM      29.96R
HANKSVILLE     PTCLDY    72  30  21 CALM      30.07S
BLANDING       CLEAR     65  34  31 N6        30.25S

$$

REGIONAL REPORTS     COLORADO/ARIZONA

CITY           SKY/WX    TMP DP  RH WIND       PRES   REMARKS
CRAIG, CO      CLEAR     54  39  57 E5        30.21S
GRAND JUNCTION CLEAR     71  30  21 SE8       30.09S
RIFLE, CO      CLEAR     63  31  30 S5        30.17S
MONTROSE, CO   CLEAR     66  40  38 SE10      30.21F
CORTEZ, CO     CLEAR     58  37  45 NE6       30.21S
COLORADO CITY    N/A     63  48  59 SE6       30.15S
PAGE, AZ       CLEAR     83  32  16 S6        30.04S
GRAND CANYON   CLEAR     51  35  54 CALM      30.30S
KINGMAN, AZ    CLEAR     79  36  21 S12       30.05R
FLAGSTAFF, AZ  CLEAR     52  38  58 CALM      30.34S

$$

REGIONAL REPORTS    NEVADA/IDAHO/WYOMING

CITY           SKY/WX    TMP DP  RH WIND       PRES   REMARKS
LAS VEGAS, NV  CLEAR     92  33  12 S7        29.90S
ELY, NY        MOCLDY    71  33  24 CALM      30.23S
ELKO, NV       CLEAR     65  23  20 CALM      30.13R
POCATELLO, ID  CLEAR     64  31  28 S5        30.08S
BURLEY, ID     CLEAR     59  40  49 SW9       30.05S
FORT BRIDGER,    N/A     64  27  25 W10       30.30S
EVANSTON, WY   CLEAR     62  29  28 SW6       30.29S
ROCK SPRINGS,  CLEAR     63  28  26 SW8       30.24F
KEMMERER, WY     N/A     55  30  38 N6        30.30S

$$




USA.gov is the U.S. government's official web portal to all federal, state and local government web resources and services.